Flag Weather past 2 weeks in Canberra, Australian Capital Territory, Australia

Now
61 °F

Clear.


Feels Like: 61 °F
Forecast: 53 / 82 °F
Wind: 9 mph from East

Location: Canberra Airport

Current Time: Nov 28, 2014 at 10:44:28 PM

Latest Report: Nov 28, 2014 at 10:00 PM


Visibility: N/A

Pressure: 30.12 "Hg

Humidity: 72%

Dew point: 52 °F

Location of CanberraLocation

Historic Weather in Canberra — Graph

°F

Canberra temperature yesterday

Maximum temperature yesterday: 77 °F (at 3:00 PM)
Minimum temperature yesterday: 55 °F (at 10:30 PM)
Average temperature yesterday: 63 °F

Past Weeks' High & Low Weather Summary

 TemperatureHumidityPressure
High102 °F (Nov 23, 3:00 PM)100% (Nov 16, 1:00 AM)30.27 "Hg (Nov 16, 1:00 AM)
Low43 °F (Nov 18, 5:00 AM)11% (Nov 14, 3:00 PM)29.62 "Hg (Nov 16, 8:30 AM)
Average67 °F57%29.96 "Hg
* Reported Nov 13 10:00 PM — Nov 28 10:00 PM, Canberra, Weather by CustomWeather, © 2014

Note: Actual official high and low records may vary slightly from our data, if they occured in-between our weather recording intervals... More about our weather records

Advertising

Canberra weather history for previous 24 hours

 ConditionsComfort  
Time TempWeatherWind HumidityBarometerVisibility
10:00 PM
Nov 28
61 °FClear.9 mph72%30.12 "HgN/A
9:00 PM66 °FClear.9 mph60%30.09 "HgN/A
8:00 PM70 °FOvercast.18 mph53%30.07 "HgN/A
7:30 PM77 °FSunny.8 mph28%30.04 "Hg10 mi
7:00 PM79 °FSunny.7 mph26%30.04 "Hg10 mi
6:30 PM79 °FSunny.3 mph26%30.04 "Hg10 mi
6:00 PM79 °FSunny.7 mph26%30.04 "Hg10 mi
5:30 PM79 °FSunny.5 mph28%30.04 "Hg10 mi
5:00 PM79 °FSunny.7 mph26%30.04 "Hg10 mi
4:30 PM81 °FSunny.8 mph26%30.07 "Hg10 mi
4:00 PM79 °FSunny.6 mph28%30.07 "Hg10 mi
3:30 PM79 °FSunny.8 mph28%30.09 "Hg10 mi
3:00 PM79 °FSunny.8 mph28%30.09 "Hg10 mi
2:00 PM75 °FSunny.8 mph31%30.12 "Hg10 mi
1:30 PM77 °FSunny.8 mph32%30.12 "Hg10 mi
1:00 PM73 °FSunny.7 mph33%30.15 "Hg10 mi
12:30 PM73 °FPassing clouds.8 mph38%30.18 "HgN/A
12:00 PM70 °FPassing clouds.7 mph43%30.18 "HgN/A
11:30 AM68 °FPassing clouds.7 mph43%30.21 "HgN/A
11:00 AM68 °FPassing clouds.7 mph49%30.21 "HgN/A
10:00 AM63 °FPassing clouds.7 mph56%30.21 "HgN/A
9:30 AM61 °FPassing clouds.7 mph55%30.24 "HgN/A
9:00 AM57 °FPassing clouds.7 mph67%30.24 "HgN/A
8:30 AM55 °FScattered clouds.6 mph72%30.24 "HgN/A
8:00 AM55 °FPartly sunny.7 mph72%30.24 "HgN/A
7:30 AM54 °FScattered clouds.5 mph77%30.24 "HgN/A
7:00 AM52 °FScattered clouds.6 mph82%30.24 "HgN/A
6:30 AM46 °FSunny.7 mph87%30.21 "HgN/A
6:00 AM45 °FSunny.2 mph87%30.21 "HgN/A
5:30 AM45 °FClear.5 mph87%30.21 "HgN/A
5:00 AM46 °FClear.1 mph93%30.21 "HgN/A
4:30 AM46 °FClear.6 mph87%30.21 "HgN/A
4:00 AM46 °FClear.6 mph87%30.21 "HgN/A
3:30 AM48 °FClear.6 mph87%30.21 "HgN/A
3:00 AM48 °FClear.7 mph87%30.21 "HgN/A
2:30 AM48 °FClear.5 mph87%30.21 "HgN/A
2:00 AM50 °FPassing clouds.6 mph88%30.21 "HgN/A
1:30 AM52 °FPassing clouds.7 mph82%30.24 "HgN/A
1:00 AM54 °FPassing clouds.7 mph77%30.24 "HgN/A
12:30 AM55 °FPassing clouds.7 mph77%30.24 "HgN/A
12:00 AM55 °FMostly cloudy.9 mph77%30.24 "HgN/A
11:30 PM
Nov 27
55 °FMostly cloudy.13 mph77%30.24 "HgN/A
11:00 PM55 °FOvercast.10 mph77%30.27 "HgN/A
10:30 PM55 °FOvercast.9 mph82%30.27 "HgN/A
10:00 PM57 °FOvercast.12 mph77%30.24 "HgN/A
Weather by CustomWeather, © 2014

See weather overviewHow to use our weather pages